Al Farabi 2 (43805 NORAD) Tracking and Keplerian Element Data

This shows tracking and keplerian element data for the satellite.

Feedback or suggestion? Click here.




ElementValue
Catalog43805
NameAl Farabi 2
Epoch Orbit3393
Epoch Day199.81153454
Epoch Year2019
RAAN271.3984
Inclination97.7415
Eccentricity0.0014286
Argument of Perigee224.0662
Mean Anonmoly135.9421
Mean Motion14.95339114
Decay Rate6.58E-06
L11 43805U 18099AZ 19199.81153454 .00000658 00000-0 64860-4 0 9994
L22 43805 97.7415 271.3984 0014286 224.0662 135.9421 14.95339114 33935

Live tracking and technical data element details for Al Farabi 2 (NORAD 43805). Al Farabi 2 can be tracked NOW for your location showing map with azimuth and elevation plus other details from your city location.

Track the satellite on the map from your city or location and see movement details for azimuth, elevation, latitude, longitude, range, height, and movement on the map or in text.







IsCatalogInMostPopularTable: catalog: 43805, numindb: 91
Update: records affected: 1



GetName: 43805 Al Farabi 2

Hit Count: updated at: Mon, 22 Jul 2019 16:21:28 GMT